Terminal Aerodrome Forecast
Issued by NWS

Home | Current Version | Previous Version | Text Only | Print | Product List | Glossary On
Versions: 1 2 3 4 5 6 7 8 9 10 11 12 13
000
FTUS46 KSTO 292300
TAFSAC
TAF
KSAC 292328Z 3000/3024 23008KT P6SM SCT150
     FM300100 22011KT P6SM FEW250
     FM300600 17004KT P6SM FEW250=

USA.gov is the U.S. government's official web portal to all federal, state and local government web resources and services.